Somerville, NJ

12:23 PM EDT on May 27, 2018 (GMT -0400)
Somerset

Weather History for KSMQ - October, 2012

Change the Weather History Date:

Friday, October 5, 2012

  Actual Average Record
Temperature  
Mean Temperature 66 °F -  
Max Temperature 80 °F 68 °F 92 °F (1941)
Min Temperature 51 °F 45 °F 29 °F (1974)
Growing Degree Days 16 (Base 50)    
Moisture  
Dew Point 55 °F    
Average Humidity 89    
Maximum Humidity 100    
Minimum Humidity 45    
Precipitation  
Precipitation 0.01 in - - ()
Sea Level Pressure  
Sea Level Pressure 30.02 in    
Wind  
Wind Speed 0 mph (North)    
Max Wind Speed 4 mph    
Max Gust Speed -    
Visibility 4 miles    
Events Fog    
Averages and records for this station are not official NWS values.
T = Trace of Precipitation, MM = Missing Value Source: NWS Daily Summary

Daily Weather History Graph

Daily Weather History Graph

Search for Another Location

Airport or City:

Astronomy

Oct. 05, 2012 Rise Set
Actual Time 6:59 AM EDT 6:33 PM EDT
Civil Twilight 6:32 AM EDT 7:00 PM EDT
Nautical Twilight 6:00 AM EDT 7:32 PM EDT
Astronomical Twilight 5:28 AM EDT 8:04 PM EDT
Moon 9:53 PM EDT (10/5) 12:06 PM EDT (10/5)
Length of Visible Light 12h 28m
Length of Day
11h 33m
Waning Gibbous, 74% of the Moon is Illuminated
Oct 5
Waning Gibbous
Oct 8
Last Quarter
Oct 15
New
Oct 21
First Quarter
Oct 29
Full

Hourly Weather History & Observations

Time (EDT) Temp. Heat Index Dew Point Humidity Pressure Visibility Wind Dir Wind Speed Gust Speed Precip Events Conditions
12:53 AM 57.9 °F - 57.0 °F 97% 30.06 in 0.2 mi Calm Calm - N/A Fog Fog
1:53 AM 57.0 °F - 55.9 °F 96% 30.06 in 0.2 mi Calm Calm - N/A Fog Fog
2:22 AM 55.4 °F - 55.4 °F 100% 30.06 in 0.5 mi Calm Calm - 0.01 in Fog Fog
2:33 AM 55.4 °F - 55.4 °F 100% 30.06 in 0.2 mi Calm Calm - 0.01 in Fog Fog
2:53 AM 55.9 °F - 55.0 °F 97% 30.06 in 0.2 mi Calm Calm - 0.01 in Fog Fog
3:16 AM 55.4 °F - 53.6 °F 94% 30.05 in 0.5 mi Calm Calm - N/A Fog Fog
3:51 AM 53.6 °F - 53.6 °F 100% 30.05 in 0.2 mi Calm Calm - N/A Fog Fog
3:53 AM 54.0 °F - 53.1 °F 97% 30.05 in 0.2 mi Calm Calm - N/A Fog Fog
4:01 AM 53.6 °F - 53.6 °F 100% 30.05 in 0.5 mi Calm Calm - N/A Fog Fog
4:37 AM 53.6 °F - 53.6 °F 100% 30.05 in 0.2 mi Calm Calm - N/A Fog Fog
4:53 AM 54.0 °F - 53.1 °F 97% 30.06 in 0.2 mi Calm Calm - N/A Fog Fog
5:03 AM 53.6 °F - 51.8 °F 94% 30.05 in 0.5 mi Calm Calm - N/A Fog Fog
5:20 AM 53.6 °F - 51.8 °F 94% 30.06 in 1.5 mi Calm Calm - N/A   Mostly Cloudy
5:34 AM 51.8 °F - 51.8 °F 100% 30.06 in 0.5 mi Calm Calm - N/A Fog Fog
5:53 AM 52.0 °F - 51.1 °F 97% 30.06 in 0.8 mi Calm Calm - N/A   Mist
6:00 AM 53.6 °F - 51.8 °F 94% 30.06 in 2.0 mi Calm Calm - N/A   Mostly Cloudy
6:12 AM 53.6 °F - 51.8 °F 94% 30.06 in 1.2 mi Calm Calm - N/A   Mostly Cloudy
6:21 AM 51.8 °F - 51.8 °F 100% 30.06 in 2.0 mi Calm Calm - N/A   Scattered Clouds
6:26 AM 51.8 °F - 51.8 °F 100% 30.06 in 1.8 mi Calm Calm - N/A   Mostly Cloudy
6:34 AM 51.8 °F - 51.8 °F 100% 30.06 in 3.0 mi Calm Calm - N/A   Scattered Clouds
6:41 AM 51.8 °F - 50.0 °F 94% 30.06 in 1.8 mi Calm Calm - N/A   Scattered Clouds
6:44 AM 51.8 °F - 50.0 °F 94% 30.06 in 0.8 mi Calm Calm - N/A   Mist
6:53 AM 51.1 °F - 50.0 °F 96% 30.07 in 0.8 mi Calm Calm - N/A   Mist
7:06 AM 51.8 °F - 50.0 °F 94% 30.07 in 1.5 mi Calm Calm - N/A   Partly Cloudy
7:09 AM 51.8 °F - 50.0 °F 94% 30.07 in 3.0 mi Calm Calm - N/A   Partly Cloudy
7:15 AM 51.8 °F - 50.0 °F 94% 30.06 in 1.5 mi Calm Calm - N/A   Clear
7:36 AM 51.8 °F - 50.0 °F 94% 30.07 in 0.8 mi Calm Calm - N/A   Clear
7:40 AM 53.6 °F - 51.8 °F 94% 30.07 in 2.5 mi Calm Calm - N/A   Clear
7:53 AM 53.1 °F - 52.0 °F 96% 30.07 in 7.0 mi Calm Calm - N/A   Clear
8:53 AM 61.0 °F - 57.9 °F 90% 30.07 in 9.0 mi Calm Calm - N/A   Clear
9:53 AM 68.0 °F - 57.9 °F 70% 30.07 in 10.0 mi Calm Calm - N/A   Clear
10:53 AM 71.6 °F - 57.2 °F 60% 30.07 in 10.0 mi Calm Calm - N/A   Clear
11:53 AM 73.0 °F - 57.0 °F 57% 30.05 in 10.0 mi Variable 3.5 mph - N/A   Clear
12:53 PM 75.0 °F - 55.9 °F 51% 30.02 in 10.0 mi Variable 3.5 mph - N/A   Clear
1:53 PM 78.1 °F - 57.0 °F 48% 29.99 in 10.0 mi Variable 3.5 mph - N/A   Clear
2:53 PM 80.1 °F 80.4 °F 57.0 °F 45% 29.97 in 10.0 mi Variable 3.5 mph - N/A   Clear
3:53 PM 79.0 °F - 55.9 °F 45% 29.96 in 10.0 mi Calm Calm - N/A   Clear
4:53 PM 78.1 °F - 57.0 °F 48% 29.95 in 10.0 mi Calm Calm - N/A   Clear
5:53 PM 72.0 °F - 59.0 °F 64% 29.95 in 10.0 mi Calm Calm - N/A   Clear
6:53 PM 66.0 °F - 62.1 °F 87% 29.96 in 10.0 mi Calm Calm - N/A   Clear
7:53 PM 63.0 °F - 61.0 °F 93% 29.96 in 6.0 mi Calm Calm - N/A   Clear
8:53 PM 62.1 °F - 61.0 °F 96% 29.95 in 5.0 mi Calm Calm - N/A   Clear
9:12 PM 60.8 °F - 59.0 °F 94% 29.95 in 1.8 mi Calm Calm - N/A   Clear
9:24 PM 60.8 °F - 59.0 °F 94% 29.95 in 3.0 mi Calm Calm - N/A   Clear
9:53 PM 60.1 °F - 59.0 °F 96% 29.95 in 4.0 mi Calm Calm - N/A   Clear
10:53 PM 59.0 °F - 57.9 °F 96% 29.94 in 4.0 mi Calm Calm - N/A   Clear
11:17 PM 57.2 °F - 57.2 °F 100% 29.93 in 2.0 mi Calm Calm - N/A   Partly Cloudy
11:28 PM 57.2 °F - 55.4 °F 94% 29.93 in 3.0 mi Calm Calm - N/A   Partly Cloudy
11:32 PM 57.2 °F - 55.4 °F 94% 29.92 in 1.5 mi Calm Calm - N/A   Partly Cloudy
11:39 PM 57.2 °F - 55.4 °F 94% 29.92 in 0.8 mi Calm Calm - N/A   Mist
11:53 PM 57.9 °F - 55.9 °F 93% 29.92 in 1.8 mi Calm Calm - N/A   Partly Cloudy
11:57 PM 57.2 °F - 55.4 °F 94% 29.92 in 3.0 mi Calm Calm - N/A   Partly Cloudy